Fort Myers, FL

5:48 AM EST on February 24, 2018 (GMT -0500)
Page

Weather History for KFMY - May, 2014

Change the Weather History Date:

Saturday, May 10, 2014

  Actual Average Record
Temperature  
Mean Temperature 82 °F 78 °F  
Max Temperature 91 °F 89 °F 96 °F (2009)
Min Temperature 72 °F 67 °F 54 °F (1960)
Degree Days  
Heating Degree Days 0 0  
Month to date heating degree days 0 0  
Since 1 July heating degree days 178 287  
Cooling Degree Days 17 13  
Month to date cooling degree days 142 121  
Year to date cooling degree days 869 751  
Growing Degree Days 32 (Base 50)    
Moisture  
Dew Point 69 °F    
Average Humidity 69    
Maximum Humidity 87    
Minimum Humidity 44    
Precipitation  
Precipitation 0.00 in 0.07 in 1.88 in (1957)
Month to date precipitation 0.54 0.59  
Year to date precipitation 8.10 9.74  
Sea Level Pressure  
Sea Level Pressure 30.09 in    
Wind  
Wind Speed 8 mph (SSE)    
Max Wind Speed 15 mph    
Max Gust Speed 20 mph    
Visibility 10 miles    
Events      
T = Trace of Precipitation, MM = Missing Value Source: NWS Daily Summary

Daily Weather History Graph

Daily Weather History Graph

Search for Another Location

Airport or City:

Trip Planner

Search our weather history database for the weather conditions in past years. The results will help you decide how hot, cold, wet, or windy it might be!

Date:

Astronomy

May. 10, 2014 Rise Set
Actual Time 6:43 AM EDT 8:04 PM EDT
Civil Twilight 6:18 AM EDT 8:29 PM EDT
Nautical Twilight 5:48 AM EDT 8:59 PM EDT
Astronomical Twilight 5:18 AM EDT 9:30 PM EDT
Moon 4:21 PM EDT (5/10) 3:50 AM EDT (5/10)
Length of Visible Light 14h 11m
Length of Day
13h 21m
Waxing Gibbous, 82% of the Moon is Illuminated
May 10
Waxing Gibbous
May 14
Full
May 21
Last Quarter
May 28
New
Jun 5
First Quarter

Hourly Weather History & Observations

Time (EDT) Temp. Heat Index Dew Point Humidity Pressure Visibility Wind Dir Wind Speed Gust Speed Precip Events Conditions
12:53 AM 73.9 °F - 66.9 °F 79% 30.10 in 10.0 mi ESE 6.9 mph - N/A   Clear
1:53 AM 73.0 °F - 68.0 °F 84% 30.09 in 10.0 mi ESE 8.1 mph - N/A   Clear
2:53 AM 73.0 °F - 68.0 °F 84% 30.08 in 10.0 mi ESE 5.8 mph - N/A   Clear
3:53 AM 73.0 °F - 68.0 °F 84% 30.08 in 10.0 mi East 5.8 mph - N/A   Overcast
4:53 AM 73.0 °F - 68.0 °F 84% 30.08 in 10.0 mi East 6.9 mph - N/A   Mostly Cloudy
5:53 AM 73.0 °F - 69.1 °F 87% 30.09 in 10.0 mi ESE 9.2 mph - N/A   Overcast
7:53 AM 73.9 °F - 69.1 °F 85% 30.13 in 9.0 mi East 8.1 mph - N/A   Clear
8:53 AM 78.1 °F - 69.1 °F 74% 30.14 in 10.0 mi SE 9.2 mph - N/A   Overcast
9:53 AM 82.0 °F 85.9 °F 70.0 °F 67% 30.14 in 10.0 mi SE 12.7 mph - N/A   Mostly Cloudy
10:53 AM 82.9 °F 85.8 °F 68.0 °F 60% 30.15 in 10.0 mi Variable 3.5 mph - N/A   Partly Cloudy
11:53 AM 84.9 °F 86.6 °F 64.9 °F 51% 30.14 in 10.0 mi South 9.2 mph - N/A   Mostly Cloudy
12:53 PM 87.1 °F 88.9 °F 64.9 °F 48% 30.11 in 10.0 mi SSE 8.1 mph - N/A   Scattered Clouds
1:53 PM 89.1 °F 91.0 °F 64.9 °F 45% 30.09 in 10.0 mi North - - N/A   Scattered Clouds
2:53 PM 88.0 °F 92.1 °F 69.1 °F 53% 30.06 in 10.0 mi SSW 8.1 mph - N/A   Scattered Clouds
3:53 PM 90.0 °F 95.4 °F 70.0 °F 52% 30.04 in 10.0 mi WSW 6.9 mph - N/A   Partly Cloudy
5:53 PM 86.0 °F 92.2 °F 72.0 °F 63% 30.03 in 10.0 mi SW 11.5 mph - N/A   Partly Cloudy
6:53 PM 84.0 °F 89.6 °F 72.0 °F 67% 30.03 in 10.0 mi SW 10.4 mph - N/A   Mostly Cloudy
7:53 PM 82.0 °F 86.7 °F 72.0 °F 71% 30.05 in 10.0 mi SSW 9.2 mph - N/A   Mostly Cloudy
8:53 PM 82.0 °F 86.7 °F 72.0 °F 71% 30.07 in 10.0 mi SSW 6.9 mph - N/A   Overcast
9:30 PM 82.0 °F 86.7 °F 72.0 °F 71% 30.07 in 10.0 mi South 5.8 mph - N/A   Overcast
9:53 PM 82.0 °F 86.7 °F 72.0 °F 71% 30.08 in 10.0 mi SSE 5.8 mph - N/A   Overcast
10:14 PM 82.0 °F 86.3 °F 71.1 °F 69% 30.08 in 10.0 mi SSE 6.9 mph - N/A   Overcast
10:25 PM 81.0 °F 84.9 °F 71.1 °F 72% 30.08 in 10.0 mi ESE 5.8 mph - N/A   Mostly Cloudy
11:53 PM 79.0 °F - 69.1 °F 72% 30.10 in 10.0 mi SE 6.9 mph - N/A   Clear